星链-36458(STARLINK-36458)

导读

STARLINK-36458是美国星链项目的卫星,于2026年1月9日发射升空,隶属于SpaceX公司的星链互联网星座组网卫星。星链计划旨在构建全球卫星互联网,为全球偏远地区、海洋等缺乏地面网络覆盖的区域提供高速互联网服务,该卫星的发射进一步扩充了星链星座的在轨规模。

基本信息
目录编号:
67343
目录名称:
STARLINK-36458
国际标识:
2026-003K
轨道中心:
EARTH
卫星名称:
星链-36458
卫星全名:
星链-36458(STARLINK-36458)
卫星状态:
在轨 (已飞行246 天)
发射日期:
2026-01-09 UTC
国别 :
美国 (US)
星等 :
--
该卫星已列入 空间交会检测服务 Space Conjunction Data Service (SCDS) ,当前飞行风险评估等级: 高风险
轨道信息
数据来源 国际轨道数据
星历时间: 2026-09-12T08:41:26+0800
16小时前
查看轨道信息
半长轴: 6861.169km
偏心率: 0.0000685
轨道倾角: 42.999°
近地点辐角 252.446°
升交点赤经 254.585°
平近点角 107.632°
近地点: 482.562km
远地点: 483.502km
周期: 94.266分钟
每日圈数: 15.27586
详细信息
固有亮度:
5
最大亮度:
2.5
卫星平台:
Starlink V1.0
覆盖范围:
全球
运营商:
太空探索技术公司
运营商所在国:
美国
制造商(研发单位):
太空探索技术公司
制造商所在国:
美国
使用方式:
暂无
卫星简介
Starlink 计划是 SpaceX 推出的全球卫星互联网项目,通过发射低轨道卫星,为全球尤其是偏远地区提供高速、低延迟的互联网服务。自 2019 年起,Starlink 已部署数千颗卫星,旨在缩小全球数字鸿沟,推动互联网普及。该项目还为军事、航空等行业提供通信支持,带来广泛经济效益。
2D轨道图
3D轨道图
轨道高度分析图
轨道倾角分析图
轨道综合分析图
查看轨道综合分析图
交会数据列表
事件ID 空间交会对象 最接近时刻(TCA) 交会距离 交会风险概率(CRP) 交会风险指数(CRI) 操作
CDM_260914-022505-629606-734321
2026-09-14T
02:25:02+0000
0.273 km
中距离
3.682499E-4 高风险 0.86
CDM_260914-110205-629606-734321
2026-09-14T
11:02:52+0000
0.793 km
远距离
2.789993E-5 中风险 0.64
CDM_260914-194505-652406-734321
2026-09-14T
19:45:08+0000
0.850 km
远距离
9.559338E-6 低风险 0.55
CDM_260915-011405-652406-734321
2026-09-15T
01:14:41+0000
1.003 km
极远距离
5.443871E-6 低风险 0.5
CDM_260914-092805-629606-734321
2026-09-14T
09:28:43+0000
1.425 km
极远距离
3.834462E-6 低风险 0.47
CDM_260914-005005-629606-734321
2026-09-14T
00:50:52+0000
1.543 km
极远距离
2.987565E-6 低风险 0.45
CDM_260914-211905-652406-734321
2026-09-14T
21:19:18+0000
1.209 km
极远距离
2.911135E-6 低风险 0.44
CDM_260913-022205-913606-734321
2026-09-13T
02:22:50+0000
2.111 km
极远距离
2.408336E-6 低风险 0.43
CDM_260912-124705-826406-734321
BRO-11 (58264)
2026-09-12T
12:47:50+0000
2.129 km
极远距离
1.999173E-6 低风险 0.41
CDM_260914-035905-629606-734321
2026-09-14T
03:59:11+0000
2.119 km
极远距离
1.287473E-6 低风险 0.37
与全量物体交会距离演化趋势
与全量物体交会风险概率演化趋势